Lapse_Rate
8.6 8.4 8.4 8.0 7.8 7.4 7.2 6.9 6.6 6.9 7.3 7.3 7.3 7.2 7.2 7.1 7.1 7.1 7.3 7.6 7.7 7.8 7.8 7.7 7.6 7.5 7.6 7.4 7.3 7.2 7.1 7.1 7.1
8.6 8.7 9.1 8.7 8.1 7.8 7.4 7.2 6.9 6.7 7.1 7.0 7.0 7.1 7.0 7.1 7.2 7.2 7.3 7.3 7.3 6.7 7.1 7.5 7.6 7.5 7.4 7.4 7.4 7.4 7.5 7.4 7.3
8.8 8.7 8.6 8.4 8.3 7.9 7.6 7.2 6.8 6.6 7.0 7.2 6.9 6.9 7.0 7.0 6.9 6.7 6.6 6.5 6.4 6.5 6.5 6.8 7.2 7.5 7.5 7.3 7.4 7.4 7.6 7.5 7.6
8.9 8.5 8.3 8.1 7.9 8.1 7.9 7.4 7.0 6.7 6.9 7.2 7.1 7.0 7.0 6.9 6.8 6.6 6.5 6.4 6.2 6.2 6.2 6.3 6.9 7.0 7.2 7.1 7.1 7.2 7.4 7.4 7.3
9.6 8.7 8.4 8.1 7.9 8.0 7.5 7.4 7.0 6.7 7.0 7.5 7.4 7.1 6.8 6.9 6.8 6.8 6.8 6.9 6.9 6.6 6.5 6.4 6.6 6.9 7.0 6.9 6.9 7.0 7.0 7.0 6.9
9.3 9.0 8.9 8.8 8.7 8.8 8.7 8.6 8.2 7.5 7.9 7.7 7.4 7.8 7.1 6.9 7.1 7.2 7.3 7.3 7.4 7.3 7.0 6.8 6.7 6.8 6.9 7.0 7.0 6.9 6.9 6.5 6.3
9.3 9.0 9.0 8.4 8.8 8.8 8.9 8.9 8.8 8.6 8.2 7.7 7.5 7.9 7.6 7.4 7.2 7.5 7.8 7.7 7.5 7.4 7.3 7.2 7.1 6.9 6.8 6.7 6.6 6.6 6.6 6.7 6.7
9.2 9.0 9.2 8.3 8.5 9.0 8.8 9.0 8.9 8.7 8.3 7.8 7.6 7.6 7.6 7.5 7.6 7.5 7.5 7.4 7.3 7.2 7.1 6.9 6.9 6.9 6.9 6.9 6.9 6.9 6.8 6.6 6.5
9.1 9.1 9.3 8.5 8.3 8.9 9.1 9.0 8.9 8.6 8.6 8.0 8.0 7.9 7.5 7.3 7.2 7.1 7.1 7.1 7.1 7.0 6.8 6.9 7.0 6.9 7.0 6.9 6.8 6.8 6.7 6.6 6.6
9.0 9.0 9.1 8.4 8.3 8.9 8.9 8.9 8.9 8.7 8.7 8.5 8.1 7.5 7.3 7.3 7.4 7.4 7.3 7.2 7.0 7.2 7.3 7.1 6.8 6.5 6.7 6.7 6.4 6.4 6.4 6.3 6.3
9.4 9.0 8.9 8.6 8.2 8.6 8.6 8.7 8.7 8.8 8.8 8.6 8.4 8.0 7.8 7.7 7.6 7.6 7.5 7.5 7.4 7.4 7.1 6.9 6.9 7.0 6.7 6.4 6.3 6.0 6.5 6.6 6.3
9.6 9.4 9.3 8.5 8.2 8.0 8.6 8.6 8.6 8.6 8.6 8.6 8.5 8.2 7.8 7.6 7.4 7.4 7.4 7.5 7.3 7.0 6.9 7.0 7.3 7.0 6.7 7.1 7.0 6.5 6.5 6.8 6.9
9.7 9.4 9.4 8.9 8.4 7.7 8.5 8.4 8.3 8.1 8.1 8.1 8.1 7.8 7.8 7.6 7.4 7.2 7.0 7.1 7.1 6.8 6.6 6.7 6.8 7.0 6.7 6.9 7.0 6.9 6.5 6.6 6.8
9.4 9.5 9.4 8.9 8.3 8.2 7.8 8.1 7.8 7.7 7.7 7.7 7.6 7.5 7.3 7.2 7.1 7.0 7.0 6.7 6.7 6.5 6.7 6.8 6.7 6.9 6.8 6.5 6.7 6.7 6.8 6.6 6.2
9.4 9.5 9.4 8.9 8.5 8.1 7.8 7.7 7.5 7.6 7.3 7.3 7.2 7.1 7.0 6.8 6.7 6.4 6.8 7.1 7.3 7.7 6.5 5.8 6.1 6.5 6.5 6.5 6.0 6.0 6.1 6.0 6.1
9.1 9.2 9.0 8.5 8.1 7.3 5.3 6.3 7.3 7.6 7.4 7.0 6.9 6.6 6.6 6.5 6.5 6.6 6.9 7.3 6.9 6.1 5.8 6.0 6.1 6.3 6.4 6.3 6.3 6.0 5.9 6.0 6.1
9.0 9.0 9.0 8.4 8.3 7.8 7.5 5.7 6.6 7.3 7.1 6.7 6.7 6.7 6.6 6.9 6.8 6.7 6.6 6.5 6.2 5.9 6.3 6.4 6.1 6.3 6.9 7.0 7.0 6.8 6.5 6.6 6.3
9.1 9.0 9.1 8.6 7.2 7.0 6.0 6.9 6.2 6.2 6.6 6.6 6.4 6.2 6.2 6.3 6.6 7.1 6.9 6.4 5.9 5.7 5.8 6.3 6.5 6.7 6.8 6.9 6.9 6.9 6.8 6.6 6.6
9.0 8.8 8.8 8.4 7.6 7.3 7.2 6.2 6.1 6.8 6.5 6.3 6.1 6.3 5.2 6.5 6.9 5.9 5.5 5.7 5.9 6.3 6.5 6.4 6.2 6.4 6.4 5.8 6.3 6.5 6.9 7.0 6.8
8.5 8.3 8.0 7.9 7.4 7.0 6.7 6.7 6.8 6.7 6.8 6.3 6.3 5.9 5.9 5.7 5.6 5.8 6.0 6.1 6.3 6.2 6.3 6.2 6.2 6.0 5.6 5.0 4.7 5.4 6.0 6.4 6.2
Wind_Speed
17 16 16 22 20 16 17 16 17 15 17 15 14 14 12 10 11 7 6 6 5 4 5 4 6 4 4 6 6 6 7 5 7
10 9 9 12 20 17 17 17 18 16 15 16 15 15 11 10 9 10 8 8 6 6 5 4 4 4 4 4 5 6 6 6 7
10 9 4 5 6 19 16 18 18 17 15 16 14 14 12 10 10 9 8 6 5 5 4 4 3 3 4 5 7 7 7 7 8
15 12 9 9 7 3 14 14 14 15 14 13 13 12 13 12 11 10 9 8 6 6 7 6 6 5 5 7 8 7 7 7 8
17 12 10 8 8 8 8 9 10 12 13 13 14 11 6 11 9 8 11 11 10 5 6 8 6 5 7 9 7 7 8 10 11
15 13 10 10 10 9 5 7 6 9 12 12 13 10 10 10 10 7 6 6 6 9 10 8 7 7 6 7 6 8 8 10 9
18 14 10 11 12 11 7 4 6 5 8 7 9 14 11 8 9 13 10 8 6 4 1 3 5 4 6 5 8 7 9 8 7
20 15 14 12 12 12 10 9 8 6 8 7 6 11 11 9 4 7 6 6 4 3 3 4 4 4 5 6 6 4 4 5 6
19 16 14 12 15 15 13 13 11 9 9 7 7 7 7 7 5 5 1 2 2 3 3 3 2 4 4 5 5 4 1 4 6
18 18 16 14 16 14 14 14 13 11 12 9 8 7 5 6 5 6 5 4 4 6 6 6 6 7 6 6 6 3 2 4 6
20 19 15 13 16 16 15 15 16 13 12 10 10 9 9 9 8 6 7 5 4 4 2 2 2 4 5 5 5 5 5 5 5
17 24 21 18 17 18 17 15 13 13 13 13 12 11 10 8 9 8 6 5 4 2 2 3 4 5 4 5 5 7 9 6 6
6 14 20 24 22 20 18 16 14 12 13 12 12 11 10 8 8 7 5 5 3 2 2 5 4 5 6 9 8 10 8 8 6
9 9 7 19 19 20 20 18 17 13 12 11 11 11 10 8 7 7 6 5 2 2 4 4 6 8 8 10 11 12 13 12 7
8 10 13 20 16 20 21 18 16 14 11 11 12 11 9 6 5 3 6 3 1 4 5 7 7 9 8 7 7 9 12 13 14
10 9 16 16 20 23 20 8 11 13 12 12 10 9 8 6 4 1 1 1 3 5 7 6 5 3 6 7 5 8 11 8 5
10 14 17 17 15 13 22 22 14 17 14 10 9 6 5 5 2 2 4 3 5 6 5 5 4 5 4 5 6 6 6 4 4
12 12 13 14 15 14 13 19 10 16 12 9 8 5 3 2 4 4 5 6 7 6 5 5 5 6 6 6 8 7 4 4 6
14 12 15 15 15 15 15 10 11 12 10 9 7 2 3 4 3 4 4 6 7 9 10 11 9 10 8 9 10 8 13 11 9
16 14 13 14 14 15 13 10 9 6 9 6 2 5 3 3 5 5 7 6 6 7 8 11 8 11 13 7 10 12 10 10 12
Wind_Direction
181 190 191 184 182 185 178 176 175 183 171 179 189 195 200 194 209 223 227 245 236 241 235 272 95 177 241 221 233 222 222 229 242
185 167 223 186 175 176 174 173 176 178 170 177 186 193 196 200 198 212 222 223 210 232 260 279 268 230 239 273 287 285 273 261 262
170 137 158 138 216 172 173 179 179 180 175 175 184 197 189 200 205 208 221 247 262 252 275 265 329 289 271 266 259 251 254 257 257
152 154 164 158 174 226 162 171 181 183 169 170 179 200 186 195 196 207 209 230 238 239 254 268 257 246 260 262 261 258 262 253 267
155 144 142 159 152 159 134 154 181 168 166 180 179 189 199 183 190 196 210 210 214 221 230 238 239 245 252 256 261 264 262 264 260
132 132 150 162 159 151 134 148 149 156 162 179 182 154 182 216 177 184 229 256 201 229 223 218 231 248 269 266 265 269 257 258 318
141 145 154 178 158 155 144 144 117 117 150 166 195 165 189 170 191 206 211 188 206 240 334 214 234 260 270 291 286 279 282 280 234
143 161 166 183 149 135 148 138 131 145 159 188 227 170 183 154 146 62 54 62 35 353 298 284 295 306 295 287 279 276 306 306 268
153 166 165 182 136 147 162 151 158 172 155 155 102 91 96 105 111 95 179 148 122 203 214 236 227 285 297 335 322 105 16 335 314
163 167 168 172 153 165 167 160 165 170 144 141 129 126 119 118 155 181 179 159 81 52 36 23 10 356 350 343 340 99 1 315 309
173 173 166 181 164 166 160 169 162 159 143 139 143 153 165 167 168 142 92 95 84 79 46 355 337 294 290 304 306 217 232 245 281
190 178 180 172 173 163 161 168 152 147 150 147 155 170 156 145 113 123 142 136 137 94 0 310 290 272 322 315 308 230 238 239 284
306 194 180 173 175 153 151 142 141 155 149 160 163 138 123 128 136 140 132 124 152 184 256 272 301 319 296 281 274 273 240 221 259
10 335 314 175 163 150 145 146 151 164 161 158 137 130 131 136 145 144 156 167 196 297 276 285 282 280 272 271 263 260 252 228 240
348 325 301 165 143 150 146 148 146 153 152 134 135 142 132 122 129 205 143 154 256 253 267 270 270 267 274 264 273 248 249 239 221
60 78 71 91 97 58 354 82 148 137 121 125 122 128 139 154 154 117 344 204 250 273 268 266 294 335 329 321 341 335 347 29 354
69 90 99 105 108 131 185 202 150 123 113 119 136 123 96 80 136 212 249 278 270 269 266 261 275 292 277 297 302 305 323 356 351
77 59 77 79 90 67 333 74 74 93 92 94 96 89 81 273 296 276 261 222 239 245 261 250 271 273 277 291 288 285 281 313 323
83 76 77 87 97 100 99 59 63 77 67 63 69 63 326 344 290 274 308 304 281 254 238 277 288 282 259 261 262 313 17 356 329
73 73 71 76 80 84 88 95 92 91 99 85 88 199 216 266 283 304 282 284 329 333 328 315 278 266 266 277 353 359 356 345 337